Regional Weather Roundup
Issued by NWS

Home | Current Version | Previous Version | Text Only | Print | Product List | Glossary Off
Versions: 1 2 3 4 5 6 7 8 9 10 11 12 13 14 15 16 17 18 19 20 21 22 23 24 25 26 27

000
ASUS45 KBOI 260510
RWRID

IDAHO REGIONAL WEATHER ROUNDUP
NATIONAL WEATHER SERVICE BOISE ID
1100 PM MDT MON SEP 25 2017

NOTE: "FAIR" INDICATES FEW OR NO CLOUDS BELOW 12000 FEET
WITH NO SIGNIFICANT WEATHER AND/OR OBSTRUCTIONS TO VISIBILITY

IDZ012-014-260600-
SOUTHWEST IDAHO


CITY           SKY/WX    TMP DP  RH WIND       PRES   REMARKS
BOISE          CLOUDY    54  38  54 E5        30.08S
CALDWELL       MOCLDY    56  44  64 NE5       30.08R
MOUNTAIN HOME  MOCLDY    48  35  60 SE5       30.09R
$$

IDZ016-017-260600-
SOUTHCENTRAL IDAHO


CITY           SKY/WX    TMP DP  RH WIND       PRES   REMARKS
BURLEY         MOCLDY    42  36  79 CALM      30.12R
JEROME         PTCLDY    48  33  56 CALM      30.13R
TWIN FALLS     PTCLDY    40  35  83 S8        30.13R WCI  34
$$

IDZ019>023-260600-
SOUTHEAST IDAHO


CITY           SKY/WX    TMP DP  RH WIND       PRES   REMARKS
IDAHO FALLS    CLOUDY    47  34  60 S5        30.14S
POCATELLO      MOCLDY    46  35  65 E5        30.14R
REXBURG        CLOUDY    46  31  55 S7        30.14R
$$

IDZ006-010-011-018-031-032-260600-
CENTRAL IDAHO MOUNTAINS


CITY           SKY/WX    TMP DP  RH WIND       PRES   REMARKS
MCCALL         CLOUDY    51  37  58 N8        30.13S
HAILEY         CLOUDY    43  34  70 W5        30.17R
STANLEY          N/A     43  32  65 CALM      30.19R
SALMON         CLOUDY    49  41  74 CALM      30.15S
CHALLIS        CLOUDY    48  36  63 NW6       30.15R
$$

IDZ002-004-006-007-026-260600-
NORTHERN IDAHO


CITY           SKY/WX    TMP DP  RH WIND       PRES   REMARKS
LEWISTON       CLOUDY    63  47  55 E5        30.07R
LOWELL           N/A     53  50  89 CALM      30.13R
COEUR D`ALENE  CLEAR     52  46  80 E3        30.09R
MULLAN PASS    CLOUDY    42  37  82 NW3       30.15S
$$




USA.gov is the U.S. government's official web portal to all federal, state and local government web resources and services.